Tracking 18630 objects as of 24-May-2017
HD Live streaming from Space Station
objects crossing your sky now

DMSP 5D-2 F11 DEB

Track DMSP 5D-2 F11 DEB now!
10-day predictions


NORAD ID: 29070
Int'l Code: 1991-082BR
Perigee: 784.1 km
Apogee: 802.8 km
Inclination: 98.8 °
Period: 100.6 minutes
Semi major axis: 7164 km
RCS: 0.0089 m2 (small)
Launch date: November 28, 1991
Source: United States (US)
Launch site: AIR FORCE WESTERN TEST RANGE (AFWTR)

Note: This is SATELLITE DEBRIS
Your satellite tracking list
Your tracking list is empty





NASA's NSSDC Master Catalog

Two Line Element Set (TLE):
1 29070U 91082BR  17143.82811623 +.00001156 +00000-0 +45060-3 0  9996
2 29070 098.7806 164.4776 0013076 216.6947 143.3341 14.31618292662207
Source of the keplerian elements: AFSPC